sat.trackr.live / text

‹ back to catalog

STARLINK-36918

NORAD 67956 · 2026-037AA

PAYLOAD ACTIVE UNKNOWN

§ Identity

Operator
Country
US
Launch date
2026-02-24
Launch site
AFETR
Launch vehicle
Mass (kg)
RCS (m²)

Purposes: comms

External: N2YO · Heavens-Above · Gunter

§ Orbital elements

Epoch: 2026-09-19T02:50:07.493856Z

Period
94.27 min
Inclination
42.9990°
Eccentricity
0.0001325
Mean motion
15.27593154 rev/d
Perigee alt
482.1 km
Apogee alt
483.9 km
Semi-major
6,861.1 km
B*
6.0575e-4
RAAN
178.2841°
Arg perigee
268.9098°
Mean anomaly
91.1602°
Rev number
3,292

§ Raw data

STARLINK-369181 67956U 26037AA  26262.11814229  .00016451  00000+0  60575-3 0  99992 67956  42.9990 178.2841 0001325 268.9098  91.1602 15.27593154 32929

JSON: /api/v1/satellites/67956 · /tle

For live sub-satellite position, see the globe view (requires WebGL).

§ Visibility from observer

Set your observer location to see the next 7 days of passes ≥ 10°. The values pass through the URL so the page stays shareable.

No JS? Fill the form by hand. The geolocation button needs JavaScript.